IRM63 OIIE-OMDB

Flight info

Callsign IRM63
Flight time 1h 48m
Altitude 37000
Route EGVEL P574 SYZ G666 ORSAR/N0452F250 R784 TATLA L223 VUTEB
Aircraft A346/H-SDE2E3FGHIJ3J4J5M1RWXY/LB1D1

Departure

Time 2026-05-07 23:21
Airport Imam Khomeini International Airport (OIIE)

Arrival

Time 2026-05-08 01:09
Airport Dubai International Airport (OMDB)
Time Latitude Longitude Altitude Speed Heading
2026-05-07 22:46 35.41203 51.14956 3285 ft 0 kts 198°
2026-05-07 23:09 35.41204 51.14956 3288 ft 1 kts 198°
2026-05-07 23:09 35.41227 51.14966 3285 ft 4 kts 198°
2026-05-07 23:09 35.41246 51.14973 3279 ft 4 kts 198°
2026-05-07 23:09 35.41261 51.14978 3276 ft 4 kts 166°
2026-05-07 23:10 35.41270 51.14970 3279 ft 4 kts 120°
2026-05-07 23:10 35.41279 51.14943 3278 ft 4 kts 109°
2026-05-07 23:10 35.41288 51.14912 3275 ft 4 kts 109°
2026-05-07 23:10 35.41296 51.14883 3280 ft 2 kts 109°
2026-05-07 23:11 35.41296 51.14881 3281 ft 0 kts 109°
2026-05-07 23:14 35.41293 51.14892 3277 ft 3 kts 109°
2026-05-07 23:14 35.41282 51.14933 3281 ft 7 kts 109°
2026-05-07 23:14 35.41263 51.15001 3274 ft 10 kts 109°
2026-05-07 23:14 35.41247 51.15061 3282 ft 6 kts 107°
2026-05-07 23:15 35.41252 51.15118 3278 ft 8 kts 53°
2026-05-07 23:15 35.41303 51.15154 3277 ft 5 kts 22°
2026-05-07 23:15 35.41335 51.15168 3280 ft 5 kts 18°
2026-05-07 23:15 35.41373 51.15196 3276 ft 8 kts 52°
2026-05-07 23:16 35.41378 51.15289 3277 ft 14 kts 105°
2026-05-07 23:16 35.41341 51.15430 3278 ft 20 kts 108°
2026-05-07 23:16 35.41288 51.15623 3278 ft 25 kts 109°
2026-05-07 23:16 35.41228 51.15831 3278 ft 26 kts 109°
2026-05-07 23:17 35.41167 51.16044 3274 ft 28 kts 109°
2026-05-07 23:17 35.41114 51.16234 3272 ft 19 kts 108°
2026-05-07 23:17 35.41083 51.16349 3268 ft 13 kts 108°
2026-05-07 23:17 35.41066 51.16421 3267 ft 10 kts 96°
2026-05-07 23:18 35.41108 51.16489 3265 ft 13 kts 25°
2026-05-07 23:18 35.41167 51.16518 3264 ft 9 kts 19°
2026-05-07 23:18 35.41193 51.16528 3265 ft 2 kts 18°
2026-05-07 23:18 35.41210 51.16535 3264 ft 2 kts 18°
2026-05-07 23:19 35.41218 51.16538 3264 ft 1 kts 18°
2026-05-07 23:19 35.41255 51.16553 3267 ft 9 kts 18°
2026-05-07 23:19 35.41316 51.16548 3271 ft 9 kts 322°
2026-05-07 23:19 35.41343 51.16492 3271 ft 0 kts 289°
2026-05-07 23:20 35.41375 51.16378 3271 ft 44 kts 289°
2026-05-07 23:21 35.41548 51.15760 3281 ft 107 kts 289°
2026-05-07 23:21 35.41850 51.14679 3297 ft 158 kts 289°
2026-05-07 23:21 35.42233 51.13278 3615 ft 175 kts 289°
2026-05-07 23:21 35.42612 51.11875 4296 ft 173 kts 289°
2026-05-07 23:22 35.42994 51.10470 4910 ft 175 kts 290°
2026-05-07 23:22 35.43402 51.09048 5279 ft 182 kts 289°
2026-05-07 23:22 35.43846 51.07519 5575 ft 196 kts 288°
2026-05-07 23:22 35.44310 51.05886 5854 ft 210 kts 288°
2026-05-07 23:23 35.44806 51.04123 6157 ft 227 kts 288°
2026-05-07 23:23 35.45339 51.02204 6480 ft 246 kts 285°
2026-05-07 23:23 35.45502 51.00056 6808 ft 263 kts 259°
2026-05-07 23:23 35.44824 50.97932 7270 ft 275 kts 233°
2026-05-07 23:24 35.43405 50.96377 8031 ft 277 kts 208°
2026-05-07 23:24 35.41544 50.95763 8959 ft 280 kts 183°
2026-05-07 23:24 35.39631 50.96264 9864 ft 288 kts 157°
2026-05-07 23:24 35.38062 50.97856 10590 ft 305 kts 129°
2026-05-07 23:25 35.37234 51.00348 11069 ft 332 kts 100°
2026-05-07 23:25 35.37409 51.03260 11538 ft 354 kts 78°
2026-05-07 23:25 35.38123 51.06226 12016 ft 372 kts 73°
2026-05-07 23:25 35.38962 51.09340 12447 ft 391 kts 73°
2026-05-07 23:26 35.39782 51.12605 12862 ft 409 kts 75°
2026-05-07 23:26 35.40579 51.16031 13397 ft 423 kts 76°
2026-05-07 23:26 35.41447 51.19511 14120 ft 431 kts 68°
2026-05-07 23:26 35.43108 51.22656 14851 ft 436 kts 46°
2026-05-07 23:27 35.48377 51.26002 16436 ft 431 kts
2026-05-07 23:27 35.51386 51.25895 17149 ft 427 kts 343°
2026-05-07 23:27 35.54126 51.24615 17855 ft 420 kts 324°
2026-05-07 23:28 35.56356 51.22361 18552 ft 413 kts 306°
2026-05-07 23:28 35.57869 51.19414 19179 ft 406 kts 288°
2026-05-07 23:28 35.58554 51.16080 19832 ft 400 kts 271°
2026-05-07 23:28 35.58382 51.12680 20508 ft 397 kts 255°
2026-05-07 23:29 35.57387 51.09531 21175 ft 396 kts 239°
2026-05-07 23:29 35.55714 51.06836 21863 ft 398 kts 229°
2026-05-07 23:29 35.53897 51.04245 22570 ft 401 kts 229°
2026-05-07 23:29 35.52078 51.01636 23229 ft 404 kts 229°
2026-05-07 23:30 35.50238 50.98994 23845 ft 408 kts 229°
2026-05-07 23:30 35.48392 50.96340 24436 ft 409 kts 230°
2026-05-07 23:30 35.46545 50.93684 25086 ft 409 kts 230°
2026-05-07 23:30 35.44703 50.91025 25758 ft 408 kts 230°
2026-05-07 23:31 35.43393 50.89315 26179 ft 409 kts 223°
2026-05-07 23:31 35.41006 50.87390 26753 ft 415 kts 209°
2026-05-07 23:31 35.38201 50.86241 27388 ft 421 kts 199°
2026-05-07 23:31 35.35393 50.85220 28031 ft 416 kts 206°
2026-05-07 23:32 35.32744 50.83803 28656 ft 415 kts 208°
2026-05-07 23:32 35.30098 50.82383 29353 ft 414 kts 208°
2026-05-07 23:32 35.27479 50.80972 30189 ft 408 kts 208°
2026-05-07 23:32 35.24909 50.79574 30968 ft 402 kts 208°
2026-05-07 23:33 35.22365 50.78179 31727 ft 397 kts 208°
2026-05-07 23:33 35.19861 50.76798 32441 ft 393 kts 209°
2026-05-07 23:33 35.17379 50.75425 33134 ft 390 kts 209°
2026-05-07 23:33 35.14917 50.74060 33792 ft 386 kts 209°
2026-05-07 23:34 35.12481 50.72711 34414 ft 382 kts 209°
2026-05-07 23:34 35.10071 50.71378 34976 ft 380 kts 210°
2026-05-07 23:34 35.07666 50.70046 35448 ft 379 kts 210°
2026-05-07 23:34 35.05264 50.68715 35851 ft 379 kts 210°
2026-05-07 23:35 35.02856 50.67379 36148 ft 381 kts 210°
2026-05-07 23:35 35.00432 50.66034 36414 ft 384 kts 211°
2026-05-07 23:35 34.98002 50.64688 36705 ft 386 kts 211°
2026-05-07 23:35 34.95553 50.63331 36993 ft 387 kts 210°
2026-05-07 23:36 34.90613 50.60600 37009 ft 387 kts 211°
2026-05-07 23:36 34.85709 50.57894 37018 ft 387 kts 210°
2026-05-07 23:37 34.80810 50.55246 37021 ft 390 kts 207°
2026-05-07 23:37 34.75475 50.53447 37019 ft 402 kts 198°
2026-05-07 23:38 34.69806 50.52906 37026 ft 416 kts 189°
2026-05-07 23:38 34.63951 50.53769 37032 ft 433 kts 178°
2026-05-07 23:39 34.58147 50.55955 37003 ft 442 kts 172°
2026-05-07 23:39 34.52298 50.58427 37178 ft 448 kts 172°
2026-05-07 23:40 34.49364 50.59681 37595 ft 446 kts 172°
2026-05-07 23:40 34.46445 50.60933 38015 ft 444 kts 173°
2026-05-07 23:40 34.43508 50.62189 38404 ft 443 kts 173°
2026-05-07 23:40 34.40599 50.63429 38670 ft 444 kts 173°
2026-05-07 23:41 34.37679 50.64668 38853 ft 445 kts 173°
2026-05-07 23:41 34.34749 50.65910 39033 ft 447 kts 173°
2026-05-07 23:41 34.28878 50.68397 39051 ft 447 kts 173°
2026-05-07 23:42 34.23006 50.70880 39048 ft 447 kts 173°
2026-05-07 23:42 34.17118 50.73379 39056 ft 449 kts 173°
2026-05-07 23:43 34.11215 50.75873 39069 ft 449 kts 173°
2026-05-07 23:43 34.05315 50.78362 39079 ft 449 kts 173°
2026-05-07 23:44 33.99422 50.80848 39083 ft 449 kts 173°
2026-05-07 23:44 33.93516 50.83332 39084 ft 449 kts 173°
2026-05-07 23:45 33.87609 50.85813 39080 ft 450 kts 173°
2026-05-07 23:45 33.81694 50.88294 39085 ft 450 kts 173°
2026-05-07 23:46 33.75765 50.90777 39096 ft 451 kts 173°
2026-05-07 23:46 33.69829 50.93260 39090 ft 453 kts 173°
2026-05-07 23:47 33.63873 50.95746 39109 ft 453 kts 173°
2026-05-07 23:47 33.57918 50.98228 39120 ft 453 kts 173°
2026-05-07 23:48 33.52001 51.00693 39119 ft 453 kts 173°
2026-05-07 23:48 33.46037 51.03172 39133 ft 454 kts 173°
2026-05-07 23:49 33.40078 51.05652 39133 ft 453 kts 173°
2026-05-07 23:49 33.34112 51.08130 39129 ft 454 kts 174°
2026-05-07 23:50 33.28140 51.10602 39137 ft 454 kts 174°
2026-05-07 23:50 33.22172 51.13067 39139 ft 454 kts 174°
2026-05-07 23:51 33.16201 51.15534 39131 ft 454 kts 174°
2026-05-07 23:51 33.10233 51.17992 39134 ft 453 kts 174°
2026-05-07 23:52 33.04269 51.20443 39138 ft 453 kts 174°
2026-05-07 23:52 32.98313 51.22888 39127 ft 453 kts 174°
2026-05-07 23:53 32.92343 51.25335 39136 ft 454 kts 174°
2026-05-07 23:53 32.86376 51.27779 39145 ft 454 kts 174°
2026-05-07 23:54 32.80403 51.30232 39126 ft 454 kts 175°
2026-05-07 23:54 32.74418 51.32682 39141 ft 455 kts 175°
2026-05-07 23:55 32.68456 51.35113 39144 ft 457 kts 175°
2026-05-07 23:55 32.62429 51.37568 39123 ft 458 kts 175°
2026-05-07 23:56 32.56410 51.40020 39140 ft 457 kts 175°
2026-05-07 23:56 32.50397 51.42469 39145 ft 457 kts 175°
2026-05-07 23:57 32.44381 51.44914 39130 ft 457 kts 175°
2026-05-07 23:57 32.38374 51.47351 39143 ft 456 kts 175°
2026-05-07 23:58 32.32370 51.49782 39146 ft 456 kts 175°
2026-05-07 23:58 32.26365 51.52210 39159 ft 456 kts 175°
2026-05-07 23:59 32.20366 51.54631 39164 ft 456 kts 175°
2026-05-07 23:59 32.14366 51.57049 39164 ft 456 kts 175°
2026-05-08 00:00 32.08359 51.59461 39155 ft 456 kts 175°
2026-05-08 00:00 32.02350 51.61877 39171 ft 455 kts 174°
2026-05-08 00:01 31.96357 51.64285 39176 ft 455 kts 174°
2026-05-08 00:01 31.90364 51.66687 39191 ft 455 kts 174°
2026-05-08 00:02 31.84380 51.69076 39179 ft 454 kts 174°
2026-05-08 00:02 31.78406 51.71463 39193 ft 452 kts 173°
2026-05-08 00:03 31.72439 51.73847 39195 ft 453 kts 174°
2026-05-08 00:03 31.66458 51.76235 39196 ft 455 kts 174°
2026-05-08 00:04 31.60454 51.78629 39230 ft 456 kts 174°
2026-05-08 00:04 31.54450 51.81021 39217 ft 456 kts 174°
2026-05-08 00:05 31.48438 51.83411 39210 ft 456 kts 174°
2026-05-08 00:05 31.42420 51.85801 39226 ft 457 kts 174°
2026-05-08 00:06 31.36401 51.88190 39232 ft 456 kts 174°
2026-05-08 00:06 31.30388 51.90573 39211 ft 456 kts 173°
2026-05-08 00:07 31.24358 51.92955 39229 ft 458 kts 173°
2026-05-08 00:07 31.18323 51.95342 39231 ft 458 kts 173°
2026-05-08 00:08 31.12288 51.97725 39207 ft 457 kts 173°
2026-05-08 00:08 31.06254 52.00100 39226 ft 458 kts 173°
2026-05-08 00:09 31.00212 52.02478 39230 ft 458 kts 173°
2026-05-08 00:09 30.94180 52.04849 39235 ft 459 kts 173°
2026-05-08 00:10 30.88119 52.07225 39223 ft 460 kts 173°
2026-05-08 00:10 30.82054 52.09602 39221 ft 460 kts 173°
2026-05-08 00:11 30.75982 52.11978 39205 ft 460 kts 173°
2026-05-08 00:11 30.69906 52.14347 39203 ft 463 kts 173°
2026-05-08 00:12 30.63737 52.16750 39214 ft 469 kts 172°
2026-05-08 00:12 30.58585 52.18757 39201 ft 470 kts 172°
2026-05-08 00:13 30.52384 52.21162 39184 ft 469 kts 172°
2026-05-08 00:13 30.46181 52.23569 39186 ft 473 kts 172°
2026-05-08 00:14 30.39949 52.25980 39178 ft 470 kts 172°
2026-05-08 00:14 30.33748 52.28382 39174 ft 469 kts 172°
2026-05-08 00:15 30.27549 52.30775 39169 ft 470 kts 172°
2026-05-08 00:15 30.21339 52.33167 39170 ft 470 kts 172°
2026-05-08 00:16 30.15131 52.35558 39176 ft 472 kts 173°
2026-05-08 00:16 30.08899 52.37944 39161 ft 470 kts 172°
2026-05-08 00:17 30.02697 52.40328 39147 ft 470 kts 172°
2026-05-08 00:17 29.96503 52.42703 39139 ft 469 kts 172°
2026-05-08 00:18 29.90299 52.45073 39129 ft 470 kts 172°
2026-05-08 00:18 29.84087 52.47445 39146 ft 471 kts 172°
2026-05-08 00:19 29.77876 52.49816 39126 ft 470 kts 172°
2026-05-08 00:19 29.71660 52.52182 39101 ft 471 kts 172°
2026-05-08 00:20 29.65418 52.54551 39122 ft 473 kts 171°
2026-05-08 00:20 29.59169 52.56928 39107 ft 473 kts 172°
2026-05-08 00:21 29.52904 52.59185 39104 ft 469 kts 175°
2026-05-08 00:21 29.46590 52.61003 39112 ft 468 kts 176°
2026-05-08 00:22 29.40272 52.62805 39109 ft 468 kts 175°
2026-05-08 00:22 29.33951 52.64604 39113 ft 468 kts 176°
2026-05-08 00:23 29.27631 52.66396 39090 ft 468 kts 175°
2026-05-08 00:23 29.21307 52.68190 39103 ft 468 kts 175°
2026-05-08 00:24 29.14985 52.69981 39081 ft 468 kts 175°
2026-05-08 00:24 29.08698 52.71760 39089 ft 468 kts 176°
2026-05-08 00:25 29.02325 52.73558 39072 ft 468 kts 175°
2026-05-08 00:25 28.96003 52.75343 39064 ft 469 kts 175°
2026-05-08 00:26 28.89709 52.77115 39027 ft 469 kts 175°
2026-05-08 00:26 28.83344 52.78905 39050 ft 467 kts 175°
2026-05-08 00:27 28.77068 52.80670 39039 ft 468 kts 175°
2026-05-08 00:27 28.70749 52.82444 39005 ft 468 kts 175°
2026-05-08 00:28 28.64431 52.84212 39003 ft 466 kts 175°
2026-05-08 00:28 28.58131 52.85976 38987 ft 466 kts 175°
2026-05-08 00:29 28.51845 52.87733 38978 ft 464 kts 175°
2026-05-08 00:29 28.45566 52.89481 38939 ft 465 kts 175°
2026-05-08 00:30 28.39283 52.91228 38957 ft 465 kts 175°
2026-05-08 00:30 28.32988 52.92930 38954 ft 465 kts 175°
2026-05-08 00:31 28.26689 52.94620 38921 ft 465 kts 175°
2026-05-08 00:31 28.20400 52.96307 38927 ft 465 kts 175°
2026-05-08 00:32 28.14100 52.97994 38922 ft 465 kts 175°
2026-05-08 00:32 28.07809 52.99677 38923 ft 464 kts 175°
2026-05-08 00:33 28.01526 53.01354 38900 ft 464 kts 175°
2026-05-08 00:33 27.95234 53.03031 38912 ft 465 kts 175°
2026-05-08 00:34 27.88935 53.04713 38906 ft 465 kts 175°
2026-05-08 00:34 27.82627 53.06394 38907 ft 465 kts 175°
2026-05-08 00:35 27.76335 53.08065 38895 ft 464 kts 174°
2026-05-08 00:35 27.70046 53.09738 38896 ft 464 kts 174°
2026-05-08 00:36 27.63760 53.11406 38889 ft 464 kts 174°
2026-05-08 00:36 27.57475 53.13069 38868 ft 463 kts 174°
2026-05-08 00:37 27.51201 53.14728 38853 ft 464 kts 174°
2026-05-08 00:38 27.41775 53.17218 38873 ft 463 kts 174°
2026-05-08 00:38 27.35516 53.18953 38840 ft 465 kts 172°
2026-05-08 00:39 27.29314 53.20865 38828 ft 465 kts 172°
2026-05-08 00:39 27.23072 53.22784 38812 ft 465 kts 172°
2026-05-08 00:40 27.16831 53.24700 38812 ft 465 kts 172°
2026-05-08 00:40 27.10575 53.26613 38795 ft 466 kts 172°
2026-05-08 00:41 27.04321 53.28531 38781 ft 466 kts 172°
2026-05-08 00:41 26.98022 53.30457 38783 ft 466 kts 172°
2026-05-08 00:42 26.91728 53.32380 38753 ft 466 kts 171°
2026-05-08 00:42 26.85570 53.34770 38153 ft 473 kts 163°
2026-05-08 00:42 26.82562 53.36323 37490 ft 477 kts 160°
2026-05-08 00:43 26.79636 53.38105 36839 ft 481 kts 156°
2026-05-08 00:43 26.76790 53.40121 36206 ft 486 kts 152°
2026-05-08 00:43 26.74044 53.42364 35526 ft 491 kts 148°
2026-05-08 00:43 26.71427 53.44769 34849 ft 494 kts 146°
2026-05-08 00:44 26.68790 53.47250 34197 ft 496 kts 146°
2026-05-08 00:44 26.66149 53.49747 33497 ft 498 kts 146°
2026-05-08 00:44 26.63499 53.52247 32767 ft 499 kts 146°
2026-05-08 00:44 26.60825 53.54762 32062 ft 499 kts 146°
2026-05-08 00:45 26.58159 53.57263 31379 ft 499 kts 146°
2026-05-08 00:45 26.55436 53.59656 30780 ft 496 kts 148°
2026-05-08 00:45 26.52629 53.61876 30188 ft 492 kts 151°
2026-05-08 00:45 26.49798 53.64020 29560 ft 491 kts 150°
2026-05-08 00:46 26.46969 53.66152 28847 ft 491 kts 150°
2026-05-08 00:46 26.44141 53.68281 28116 ft 491 kts 150°
2026-05-08 00:46 26.41292 53.70426 27532 ft 488 kts 150°
2026-05-08 00:46 26.38484 53.72543 27043 ft 486 kts 149°
2026-05-08 00:47 26.35695 53.74646 26533 ft 481 kts 149°
2026-05-08 00:47 26.32938 53.76727 26059 ft 476 kts 149°
2026-05-08 00:47 26.30202 53.78789 25501 ft 473 kts 148°
2026-05-08 00:47 26.27461 53.80853 24988 ft 468 kts 148°
2026-05-08 00:48 26.24775 53.82875 24443 ft 465 kts 148°
2026-05-08 00:48 26.22098 53.84887 23929 ft 461 kts 148°
2026-05-08 00:48 26.19450 53.86877 23458 ft 456 kts 148°
2026-05-08 00:48 26.16853 53.88828 22699 ft 444 kts 147°
2026-05-08 00:49 26.14342 53.90715 22148 ft 425 kts 147°
2026-05-08 00:49 26.11901 53.92547 21977 ft 422 kts 147°
2026-05-08 00:49 26.09544 53.94487 21608 ft 420 kts 140°
2026-05-08 00:49 26.07500 53.96796 21296 ft 419 kts 131°
2026-05-08 00:50 26.05806 53.99428 20963 ft 418 kts 123°
2026-05-08 00:50 26.04402 54.02252 20644 ft 415 kts 120°
2026-05-08 00:50 26.03065 54.05088 20210 ft 411 kts 119°
2026-05-08 00:50 26.01748 54.07901 19685 ft 409 kts 119°
2026-05-08 00:51 26.00427 54.10708 19200 ft 407 kts 119°
2026-05-08 00:51 25.99119 54.13472 18776 ft 403 kts 119°
2026-05-08 00:51 25.97813 54.16218 18368 ft 399 kts 119°
2026-05-08 00:51 25.96518 54.18934 17943 ft 396 kts 119°
2026-05-08 00:52 25.95229 54.21633 17466 ft 393 kts 119°
2026-05-08 00:52 25.93954 54.24302 17012 ft 389 kts 119°
2026-05-08 00:52 25.92719 54.26970 16551 ft 386 kts 117°
2026-05-08 00:52 25.91623 54.29687 16092 ft 383 kts 114°
2026-05-08 00:53 25.90674 54.32454 15649 ft 380 kts 111°
2026-05-08 00:53 25.89798 54.35219 15212 ft 377 kts 110°
2026-05-08 00:53 25.88937 54.37954 14665 ft 370 kts 110°
2026-05-08 00:53 25.88097 54.40625 14042 ft 359 kts 110°
2026-05-08 00:54 25.87273 54.43248 13857 ft 358 kts 110°
2026-05-08 00:54 25.86455 54.45853 13469 ft 356 kts 110°
2026-05-08 00:54 25.85642 54.48435 13051 ft 352 kts 110°
2026-05-08 00:54 25.85103 54.50145 12773 ft 351 kts 110°
2026-05-08 00:55 25.84301 54.52688 12360 ft 350 kts 110°
2026-05-08 00:55 25.83496 54.55238 11953 ft 349 kts 110°
2026-05-08 00:55 25.82694 54.57774 11547 ft 347 kts 110°
2026-05-08 00:55 25.81893 54.60307 11140 ft 346 kts 109°
2026-05-08 00:56 25.81098 54.62822 10886 ft 344 kts 109°
2026-05-08 00:56 25.80242 54.65293 10749 ft 332 kts 116°
2026-05-08 00:56 25.79075 54.67439 10588 ft 321 kts 127°
2026-05-08 00:56 25.77615 54.69257 10462 ft 310 kts 135°
2026-05-08 00:57 25.76087 54.70877 10359 ft 298 kts 137°
2026-05-08 00:57 25.74599 54.72416 10271 ft 287 kts 137°
2026-05-08 00:57 25.73156 54.73910 10183 ft 281 kts 136°
2026-05-08 00:57 25.71738 54.75384 10091 ft 278 kts 136°
2026-05-08 00:58 25.70314 54.76868 10006 ft 276 kts 136°
2026-05-08 00:58 25.68910 54.78337 9690 ft 278 kts 136°
2026-05-08 00:58 25.67501 54.79816 9348 ft 279 kts 136°
2026-05-08 00:58 25.66093 54.81294 9027 ft 279 kts 136°
2026-05-08 00:59 25.64685 54.82772 8727 ft 278 kts 136°
2026-05-08 00:59 25.63285 54.84239 8436 ft 277 kts 137°
2026-05-08 00:59 25.61881 54.85704 8135 ft 276 kts 139°
2026-05-08 00:59 25.60405 54.87065 7842 ft 275 kts 143°
2026-05-08 01:00 25.58869 54.88332 7547 ft 275 kts 145°
2026-05-08 01:00 25.57331 54.89585 7261 ft 274 kts 145°
2026-05-08 01:00 25.55772 54.90849 6965 ft 274 kts 144°
2026-05-08 01:00 25.54243 54.92097 6688 ft 273 kts 144°
2026-05-08 01:01 25.52714 54.93349 6391 ft 273 kts 145°
2026-05-08 01:01 25.51185 54.94595 6087 ft 273 kts 145°
2026-05-08 01:01 25.49658 54.95840 5800 ft 273 kts 145°
2026-05-08 01:01 25.48131 54.97089 5501 ft 273 kts 143°
2026-05-08 01:02 25.46698 54.98474 5203 ft 274 kts 140°
2026-05-08 01:02 25.45373 54.99999 4911 ft 275 kts 130°
2026-05-08 01:02 25.44299 55.01737 4619 ft 276 kts 123°
2026-05-08 01:02 25.43342 55.03584 4325 ft 276 kts 121°
2026-05-08 01:03 25.42398 55.05431 4079 ft 272 kts 122°
2026-05-08 01:03 25.41465 55.07207 4071 ft 258 kts 122°
2026-05-08 01:03 25.40569 55.08866 4056 ft 245 kts 123°
2026-05-08 01:03 25.39685 55.10471 4054 ft 243 kts 123°
2026-05-08 01:04 25.38798 55.12064 3933 ft 243 kts 124°
2026-05-08 01:04 25.37919 55.13637 3740 ft 238 kts 124°
2026-05-08 01:04 25.37061 55.15173 3563 ft 232 kts 124°
2026-05-08 01:04 25.36228 55.16669 3457 ft 217 kts 124°
2026-05-08 01:05 25.35461 55.18046 3340 ft 204 kts 124°
2026-05-08 01:05 25.34729 55.19363 3286 ft 195 kts 124°
2026-05-08 01:05 25.34041 55.20602 3077 ft 184 kts 124°
2026-05-08 01:05 25.33374 55.21802 2851 ft 184 kts 124°
2026-05-08 01:06 25.32697 55.23020 2613 ft 184 kts 124°
2026-05-08 01:06 25.32027 55.24228 2378 ft 183 kts 123°
2026-05-08 01:06 25.31361 55.25435 2167 ft 184 kts 124°
2026-05-08 01:06 25.30691 55.26645 1936 ft 185 kts 123°
2026-05-08 01:07 25.30034 55.27835 1694 ft 176 kts 123°
2026-05-08 01:07 25.29403 55.28975 1472 ft 171 kts 122°
2026-05-08 01:07 25.28782 55.30101 1268 ft 169 kts 122°
2026-05-08 01:07 25.28176 55.31197 1044 ft 165 kts 122°
2026-05-08 01:08 25.27585 55.32276 888 ft 162 kts 122°
2026-05-08 01:08 25.27010 55.33332 718 ft 159 kts 123°
2026-05-08 01:08 25.26447 55.34359 478 ft 154 kts 123°
2026-05-08 01:08 25.25888 55.35360 266 ft 152 kts 123°
2026-05-08 01:09 25.25337 55.36351 55 ft 151 kts 123°
2026-05-08 01:09 25.24842 55.37228 33 ft 97 kts 122°
2026-05-08 01:09 25.24552 55.37750 31 ft 57 kts 121°
2026-05-08 01:09 25.24408 55.38010 33 ft 34 kts 121°
2026-05-08 01:10 25.24293 55.38103 34 ft 16 kts 189°
2026-05-08 01:10 25.24212 55.38033 31 ft 13 kts 264°
2026-05-08 01:10 25.24252 55.37922 30 ft 18 kts 301°
2026-05-08 01:10 25.24322 55.37796 30 ft 21 kts 301°
2026-05-08 01:11 25.24403 55.37650 30 ft 24 kts 301°
2026-05-08 01:11 25.24494 55.37487 30 ft 26 kts 302°
2026-05-08 01:11 25.24595 55.37309 30 ft 28 kts 302°
2026-05-08 01:11 25.24700 55.37122 30 ft 25 kts 302°
2026-05-08 01:12 25.24795 55.36954 30 ft 27 kts 302°
2026-05-08 01:12 25.24868 55.36758 30 ft 29 kts 283°
2026-05-08 01:12 25.24952 55.36558 30 ft 26 kts 301°
2026-05-08 01:12 25.25051 55.36384 30 ft 27 kts 302°
2026-05-08 01:13 25.25141 55.36224 30 ft 25 kts 302°
2026-05-08 01:13 25.25239 55.36051 30 ft 28 kts 302°
2026-05-08 01:13 25.25346 55.35859 30 ft 30 kts 302°
2026-05-08 01:13 25.25459 55.35657 30 ft 31 kts 301°
2026-05-08 01:14 25.25577 55.35445 30 ft 33 kts 301°
2026-05-08 01:14 25.25688 55.35247 30 ft 29 kts 302°
2026-05-08 01:14 25.25793 55.35060 30 ft 25 kts 301°
2026-05-08 01:14 25.25857 55.34902 30 ft 19 kts 275°
2026-05-08 01:15 25.25862 55.34784 30 ft 9 kts 259°
2026-05-08 01:15 25.25841 55.34745 30 ft 0 kts 226°
2026-05-08 01:15 25.25827 55.34728 30 ft 5 kts 224°
2026-05-08 01:15 25.25809 55.34716 30 ft 1 kts 211°
2026-05-08 01:16 25.25796 55.34707 30 ft 3 kts 211°
2026-05-08 01:16 25.25790 55.34703 30 ft 2 kts 211°
2026-05-08 01:16 25.25784 55.34698 30 ft 0 kts 211°